Time,TemperatureF,DewpointF,PressureIn,WindDirection,WindDirectionDegrees,WindSpeedMPH,WindSpeedGustMPH,Humidity,HourlyPrecipIn,Conditions,Clouds,dailyrainin,SolarRadiationWatts/m^2,SoftwareType,DateUTC
2013-09-06 00:02:00,71.0,64.9,30.03,ESE,119,3.0,4.0,81,0.00,,,0.00,0,Wunderground v.1.15,2013-09-06 05:02:00,
2013-09-06 00:07:00,71.1,65.0,30.03,SE,136,3.0,4.0,81,0.00,,,0.00,0,Wunderground v.1.15,2013-09-06 05:07:00,
2013-09-06 00:13:00,71.7,64.5,30.03,SE,134,4.0,5.0,78,0.00,,,0.00,0,Wunderground v.1.15,2013-09-06 05:13:00,
2013-09-06 00:19:00,72.1,64.1,30.02,SE,137,5.0,7.0,76,0.00,,,0.00,0,Wunderground v.1.15,2013-09-06 05:19:00,
2013-09-06 00:24:00,72.4,64.0,30.02,SSE,148,4.0,5.0,75,0.00,,,0.00,0,Wunderground v.1.15,2013-09-06 05:24:00,
2013-09-06 00:29:00,72.5,64.1,30.02,SE,136,4.0,6.0,75,0.00,,,0.00,0,Wunderground v.1.15,2013-09-06 05:29:00,
2013-09-06 00:34:00,72.5,63.7,30.02,SSE,166,5.0,6.0,74,0.00,,,0.00,0,Wunderground v.1.15,2013-09-06 05:34:00,
2013-09-06 00:40:00,72.4,63.6,30.02,SE,128,5.0,5.0,74,0.00,,,0.00,0,Wunderground v.1.15,2013-09-06 05:40:00,
2013-09-06 00:46:00,72.1,63.4,30.03,SE,138,4.0,5.0,74,0.00,,,0.00,0,Wunderground v.1.15,2013-09-06 05:46:00,
2013-09-06 00:52:00,72.1,63.4,30.03,SE,132,4.0,5.0,74,0.00,,,0.00,0,Wunderground v.1.15,2013-09-06 05:52:00,
2013-09-06 00:58:00,71.4,63.1,30.03,ESE,119,4.0,5.0,75,0.00,,,0.00,0,Wunderground v.1.15,2013-09-06 05:58:00,
2013-09-06 01:03:00,71.3,63.3,30.03,SE,133,4.0,5.0,76,0.00,,,0.00,0,Wunderground v.1.15,2013-09-06 06:03:00,
2013-09-06 01:08:00,71.3,63.3,30.03,ESE,120,4.0,5.0,76,0.00,,,0.00,0,Wunderground v.1.15,2013-09-06 06:08:00,
2013-09-06 01:13:00,70.7,63.1,30.03,SE,129,4.0,5.0,77,0.00,,,0.00,0,Wunderground v.1.15,2013-09-06 06:13:00,
2013-09-06 01:19:00,70.7,63.1,30.03,SSE,161,4.0,5.0,77,0.00,,,0.00,0,Wunderground v.1.15,2013-09-06 06:19:00,
2013-09-06 01:25:00,70.5,62.9,30.03,SE,128,4.0,7.0,77,0.00,,,0.00,0,Wunderground v.1.15,2013-09-06 06:25:00,
2013-09-06 01:31:00,70.6,62.7,30.03,SSE,156,4.0,5.0,76,0.00,,,0.00,0,Wunderground v.1.15,2013-09-06 06:31:00,
2013-09-06 01:37:00,70.6,62.7,30.03,SSE,155,3.0,5.0,76,0.00,,,0.00,0,Wunderground v.1.15,2013-09-06 06:37:00,
2013-09-06 01:42:00,70.3,62.7,30.03,SSE,158,3.0,3.0,77,0.00,,,0.00,0,Wunderground v.1.15,2013-09-06 06:42:00,
2013-09-06 01:47:00,70.2,62.6,30.03,SSE,163,3.0,5.0,77,0.00,,,0.00,0,Wunderground v.1.15,2013-09-06 06:47:00,
2013-09-06 01:53:00,70.0,62.5,30.03,SE,138,4.0,5.0,77,0.00,,,0.00,0,Wunderground v.1.15,2013-09-06 06:53:00,
2013-09-06 01:59:00,70.0,62.1,30.03,SSE,153,4.0,6.0,76,0.00,,,0.00,0,Wunderground v.1.15,2013-09-06 06:59:00,
2013-09-06 02:05:00,70.0,62.1,30.03,SSE,153,4.0,7.0,76,0.00,,,0.00,0,Wunderground v.1.15,2013-09-06 07:05:00,
2013-09-06 02:11:00,69.7,61.8,30.02,SSE,154,4.0,4.0,76,0.00,,,0.00,0,Wunderground v.1.15,2013-09-06 07:11:00,
2013-09-06 02:17:00,69.5,62.0,30.02,SSE,157,4.0,5.0,77,0.00,,,0.00,0,Wunderground v.1.15,2013-09-06 07:17:00,
2013-09-06 02:22:00,69.5,62.0,30.02,SE,128,4.0,7.0,77,0.00,,,0.00,0,Wunderground v.1.15,2013-09-06 07:22:00,
2013-09-06 02:27:00,69.5,62.0,30.02,SSE,155,4.0,7.0,77,0.00,,,0.00,0,Wunderground v.1.15,2013-09-06 07:27:00,
2013-09-06 02:32:00,69.5,62.0,30.02,SSE,155,4.0,7.0,77,0.00,,,0.00,0,Wunderground v.1.15,2013-09-06 07:32:00,
2013-09-06 02:37:00,69.6,62.1,30.02,South,173,4.0,7.0,77,0.00,,,0.00,0,Wunderground v.1.15,2013-09-06 07:37:00,
2013-09-06 02:42:00,69.1,61.6,30.02,South,179,4.0,5.0,77,0.00,,,0.00,0,Wunderground v.1.15,2013-09-06 07:42:00,
2013-09-06 02:47:00,68.8,61.7,30.02,SSE,154,4.0,5.0,78,0.00,,,0.00,0,Wunderground v.1.15,2013-09-06 07:47:00,
2013-09-06 02:53:00,68.4,61.6,30.02,SSE,167,4.0,5.0,79,0.00,,,0.00,0,Wunderground v.1.15,2013-09-06 07:53:00,
2013-09-06 02:59:00,68.2,61.4,30.02,SE,144,3.0,5.0,79,0.00,,,0.00,0,Wunderground v.1.15,2013-09-06 07:59:00,
2013-09-06 03:05:00,68.3,61.5,30.02,SSE,163,3.0,5.0,79,0.00,,,0.00,0,Wunderground v.1.15,2013-09-06 08:05:00,
2013-09-06 03:10:00,68.5,61.7,30.02,SSE,161,4.0,5.0,79,0.00,,,0.00,0,Wunderground v.1.15,2013-09-06 08:10:00,
2013-09-06 03:15:00,68.6,61.8,30.02,SSE,156,4.0,5.0,79,0.00,,,0.00,0,Wunderground v.1.15,2013-09-06 08:15:00,
2013-09-06 03:20:00,68.6,61.8,30.02,South,170,4.0,4.0,79,0.00,,,0.00,0,Wunderground v.1.15,2013-09-06 08:20:00,
2013-09-06 03:26:00,68.5,61.7,30.02,South,169,4.0,5.0,79,0.00,,,0.00,0,Wunderground v.1.15,2013-09-06 08:26:00,
2013-09-06 03:32:00,68.4,61.6,30.02,SSE,161,4.0,4.0,79,0.00,,,0.00,0,Wunderground v.1.15,2013-09-06 08:32:00,
2013-09-06 03:37:00,68.1,61.7,30.02,SSE,161,4.0,5.0,80,0.00,,,0.00,0,Wunderground v.1.15,2013-09-06 08:37:00,
2013-09-06 03:42:00,67.7,61.3,30.02,SSE,148,4.0,5.0,80,0.00,,,0.00,0,Wunderground v.1.15,2013-09-06 08:42:00,
2013-09-06 03:47:00,67.7,61.7,30.01,SSE,161,4.0,5.0,81,0.00,,,0.00,0,Wunderground v.1.15,2013-09-06 08:47:00,
2013-09-06 03:53:00,67.5,61.5,30.01,South,173,4.0,5.0,81,0.00,,,0.00,0,Wunderground v.1.15,2013-09-06 08:53:00,
2013-09-06 03:59:00,67.2,61.5,30.02,South,174,3.0,5.0,82,0.00,,,0.00,0,Wunderground v.1.15,2013-09-06 08:59:00,
2013-09-06 04:05:00,67.4,61.7,30.01,South,169,4.0,5.0,82,0.00,,,0.00,0,Wunderground v.1.15,2013-09-06 09:05:00,
2013-09-06 04:10:00,67.4,61.7,30.01,SSE,161,4.0,5.0,82,0.00,,,0.00,0,Wunderground v.1.15,2013-09-06 09:10:00,
2013-09-06 04:15:00,67.5,61.8,30.01,SSE,160,4.0,5.0,82,0.00,,,0.00,0,Wunderground v.1.15,2013-09-06 09:15:00,
2013-09-06 04:20:00,67.7,61.7,30.01,SSE,148,5.0,5.0,81,0.00,,,0.00,0,Wunderground v.1.15,2013-09-06 09:20:00,
2013-09-06 04:25:00,67.7,61.7,30.01,SSE,147,5.0,6.0,81,0.00,,,0.00,0,Wunderground v.1.15,2013-09-06 09:25:00,
2013-09-06 04:30:00,67.8,61.8,30.01,SSE,158,5.0,7.0,81,0.00,,,0.00,0,Wunderground v.1.15,2013-09-06 09:30:00,
2013-09-06 04:35:00,68.2,62.1,30.01,South,172,6.0,8.0,81,0.00,,,0.00,0,Wunderground v.1.15,2013-09-06 09:35:00,
2013-09-06 04:40:00,68.4,62.0,30.01,SSE,168,7.0,10.0,80,0.00,,,0.00,0,Wunderground v.1.15,2013-09-06 09:40:00,
2013-09-06 04:45:00,68.4,62.0,30.01,SSE,161,7.0,10.0,80,0.00,,,0.00,0,Wunderground v.1.15,2013-09-06 09:45:00,
2013-09-06 04:50:00,68.4,62.0,30.01,SSE,166,6.0,7.0,80,0.00,,,0.00,0,Wunderground v.1.15,2013-09-06 09:50:00,
2013-09-06 04:55:00,68.4,62.0,30.01,SSE,163,6.0,7.0,80,0.00,,,0.00,0,Wunderground v.1.15,2013-09-06 09:55:00,
2013-09-06 05:00:00,68.3,62.2,30.01,South,170,5.0,6.0,81,0.00,,,0.00,0,Wunderground v.1.15,2013-09-06 10:00:00,
2013-09-06 05:06:00,67.9,62.2,30.01,SE,139,5.0,8.0,82,0.00,,,0.00,0,Wunderground v.1.15,2013-09-06 10:06:00,
2013-09-06 05:12:00,67.5,62.2,30.01,South,171,4.0,7.0,83,0.00,,,0.00,0,Wunderground v.1.15,2013-09-06 10:12:00,
2013-09-06 05:17:00,67.5,62.2,30.01,SSE,159,4.0,7.0,83,0.00,,,0.00,0,Wunderground v.1.15,2013-09-06 10:17:00,
2013-09-06 05:22:00,67.7,62.0,30.01,SSE,159,5.0,6.0,82,0.00,,,0.00,0,Wunderground v.1.15,2013-09-06 10:22:00,
2013-09-06 05:27:00,67.9,62.2,30.02,SSW,198,5.0,6.0,82,0.00,,,0.00,0,Wunderground v.1.15,2013-09-06 10:27:00,
2013-09-06 05:32:00,68.2,62.5,30.02,South,178,5.0,5.0,82,0.00,,,0.00,0,Wunderground v.1.15,2013-09-06 10:32:00,
2013-09-06 05:37:00,68.2,62.5,30.02,SSE,162,5.0,5.0,82,0.00,,,0.00,0,Wunderground v.1.15,2013-09-06 10:37:00,
2013-09-06 05:42:00,68.3,62.6,30.02,South,170,4.0,5.0,82,0.00,,,0.00,0,Wunderground v.1.15,2013-09-06 10:42:00,
2013-09-06 05:48:00,68.2,62.5,30.02,SSE,157,4.0,6.0,82,0.00,,,0.00,0,Wunderground v.1.15,2013-09-06 10:48:00,
2013-09-06 05:54:00,68.0,62.3,30.02,SSE,162,4.0,5.0,82,0.00,,,0.00,0,Wunderground v.1.15,2013-09-06 10:54:00,
2013-09-06 05:59:00,68.1,62.4,30.02,SSE,162,4.0,5.0,82,0.00,,,0.00,0,Wunderground v.1.15,2013-09-06 10:59:00,
2013-09-06 06:05:00,68.2,62.8,30.02,SSE,159,5.0,6.0,83,0.00,,,0.00,0,Wunderground v.1.15,2013-09-06 11:05:00,
2013-09-06 06:10:00,68.4,62.7,30.01,South,169,5.0,5.0,82,0.00,,,0.00,0,Wunderground v.1.15,2013-09-06 11:10:00,
2013-09-06 06:15:00,68.3,62.6,30.01,SE,143,5.0,6.0,82,0.00,,,0.00,0,Wunderground v.1.15,2013-09-06 11:15:00,
2013-09-06 06:20:00,67.8,62.4,30.01,SSE,165,4.0,4.0,83,0.00,,,0.00,0,Wunderground v.1.15,2013-09-06 11:20:00,
2013-09-06 06:25:00,67.4,62.4,30.02,South,169,3.0,4.0,84,0.00,,,0.00,0,Wunderground v.1.15,2013-09-06 11:25:00,
2013-09-06 06:30:00,67.4,62.4,30.02,SE,136,3.0,3.0,84,0.00,,,0.00,0,Wunderground v.1.15,2013-09-06 11:30:00,
2013-09-06 06:35:00,67.3,62.6,30.01,SE,130,3.0,4.0,85,0.00,,,0.00,0,Wunderground v.1.15,2013-09-06 11:35:00,
2013-09-06 06:41:00,67.0,62.3,30.02,SE,140,3.0,3.0,85,0.00,,,0.00,0,Wunderground v.1.15,2013-09-06 11:41:00,
2013-09-06 06:46:00,66.8,62.5,30.02,SSE,150,3.0,5.0,86,0.00,,,0.00,0,Wunderground v.1.15,2013-09-06 11:46:00,
2013-09-06 06:51:00,66.7,62.4,30.02,SE,132,3.0,5.0,86,0.00,,,0.00,0,Wunderground v.1.15,2013-09-06 11:51:00,
2013-09-06 06:56:00,66.8,62.5,30.02,SE,134,4.0,7.0,86,0.00,,,0.00,0,Wunderground v.1.15,2013-09-06 11:56:00,
2013-09-06 07:01:00,66.9,62.6,30.02,SE,129,4.0,4.0,86,0.00,,,0.00,5,Wunderground v.1.15,2013-09-06 12:01:00,
2013-09-06 07:06:00,66.8,62.5,30.02,SSE,147,4.0,6.0,86,0.00,,,0.00,9,Wunderground v.1.15,2013-09-06 12:06:00,
2013-09-06 07:11:00,66.9,62.6,30.02,SSE,157,4.0,4.0,86,0.00,,,0.00,18,Wunderground v.1.15,2013-09-06 12:11:00,
2013-09-06 07:17:00,66.8,62.5,30.02,SE,131,4.0,6.0,86,0.00,,,0.00,30,Wunderground v.1.15,2013-09-06 12:17:00,
2013-09-06 07:23:00,66.9,62.6,30.02,SSE,148,4.0,6.0,86,0.00,,,0.00,47,Wunderground v.1.15,2013-09-06 12:23:00,
2013-09-06 07:29:00,67.0,62.7,30.02,SSE,147,5.0,6.0,86,0.00,,,0.00,53,Wunderground v.1.15,2013-09-06 12:29:00,
2013-09-06 07:35:00,67.2,62.9,30.02,SE,138,5.0,5.0,86,0.00,,,0.00,54,Wunderground v.1.15,2013-09-06 12:35:00,
2013-09-06 07:41:00,67.4,63.1,30.02,SE,133,5.0,7.0,86,0.00,,,0.00,65,Wunderground v.1.15,2013-09-06 12:41:00,
2013-09-06 07:47:00,67.4,63.1,30.02,SSE,161,5.0,7.0,86,0.00,,,0.00,81,Wunderground v.1.15,2013-09-06 12:47:00,
2013-09-06 07:53:00,67.8,63.1,30.01,SSE,154,4.0,6.0,85,0.00,,,0.00,90,Wunderground v.1.15,2013-09-06 12:53:00,
2013-09-06 07:59:00,68.3,63.3,30.01,SSE,157,5.0,8.0,84,0.00,,,0.00,102,Wunderground v.1.15,2013-09-06 12:59:00,
2013-09-06 08:05:00,68.4,63.4,30.01,SE,143,6.0,8.0,84,0.00,,,0.00,91,Wunderground v.1.15,2013-09-06 13:05:00,
2013-09-06 08:10:00,68.4,63.4,30.01,SSE,167,6.0,8.0,84,0.00,,,0.00,81,Wunderground v.1.15,2013-09-06 13:10:00,
2013-09-06 08:15:00,68.5,63.5,30.01,SSE,165,6.0,8.0,84,0.00,,,0.00,125,Wunderground v.1.15,2013-09-06 13:15:00,
2013-09-06 08:20:00,68.9,63.9,30.01,South,178,5.0,6.0,84,0.00,,,0.00,176,Wunderground v.1.15,2013-09-06 13:20:00,
2013-09-06 08:25:00,69.4,64.0,30.01,SE,146,5.0,8.0,83,0.00,,,0.00,199,Wunderground v.1.15,2013-09-06 13:25:00,
2013-09-06 08:31:00,70.1,64.0,30.01,South,188,6.0,6.0,81,0.00,,,0.00,237,Wunderground v.1.15,2013-09-06 13:31:00,
2013-09-06 08:38:00,70.6,64.5,30.01,South,178,6.0,6.0,81,0.00,,,0.00,116,Wunderground v.1.15,2013-09-06 13:38:00,
2013-09-06 08:44:00,71.1,64.6,30.01,SE,144,5.0,8.0,80,0.00,,,0.00,271,Wunderground v.1.15,2013-09-06 13:44:00,
2013-09-06 08:49:00,71.3,64.4,30.01,SSE,163,6.0,13.0,79,0.00,,,0.00,105,Wunderground v.1.15,2013-09-06 13:49:00,
2013-09-06 08:54:00,71.5,64.6,30.01,SSE,150,8.0,11.0,79,0.00,,,0.00,209,Wunderground v.1.15,2013-09-06 13:54:00,
2013-09-06 08:59:00,72.3,65.4,30.01,SSE,159,7.0,11.0,79,0.00,,,0.00,313,Wunderground v.1.15,2013-09-06 13:59:00,
2013-09-06 09:05:00,73.1,65.5,30.00,SSE,160,8.0,11.0,77,0.00,,,0.00,316,Wunderground v.1.15,2013-09-06 14:05:00,
2013-09-06 09:10:00,73.3,65.3,30.00,SSE,152,7.0,9.0,76,0.00,,,0.00,345,Wunderground v.1.15,2013-09-06 14:10:00,
2013-09-06 09:15:00,73.9,65.9,30.00,SSE,161,6.0,9.0,76,0.00,,,0.00,374,Wunderground v.1.15,2013-09-06 14:15:00,
2013-09-06 09:20:00,74.5,65.7,30.01,SE,137,7.0,7.0,74,0.00,,,0.00,322,Wunderground v.1.15,2013-09-06 14:20:00,
2013-09-06 09:25:00,74.7,65.9,30.00,SSE,162,7.0,9.0,74,0.00,,,0.00,111,Wunderground v.1.15,2013-09-06 14:25:00,
2013-09-06 09:31:00,74.4,65.6,30.00,South,182,7.0,12.0,74,0.00,,,0.00,127,Wunderground v.1.15,2013-09-06 14:31:00,
2013-09-06 09:37:00,74.4,66.0,30.00,SSW,196,7.0,12.0,75,0.00,,,0.00,105,Wunderground v.1.15,2013-09-06 14:37:00,
2013-09-06 09:42:00,74.9,66.4,30.00,SSE,162,6.0,7.0,75,0.00,,,0.00,114,Wunderground v.1.15,2013-09-06 14:42:00,
2013-09-06 09:47:00,75.8,66.9,30.00,SSE,163,6.0,10.0,74,0.00,,,0.00,427,Wunderground v.1.15,2013-09-06 14:47:00,
2013-09-06 09:52:00,76.1,66.4,30.00,SSE,148,7.0,11.0,72,0.00,,,0.00,448,Wunderground v.1.15,2013-09-06 14:52:00,
2013-09-06 09:57:00,76.5,66.8,30.00,SSE,155,8.0,12.0,72,0.00,,,0.00,439,Wunderground v.1.15,2013-09-06 14:57:00,
2013-09-06 10:03:00,77.2,67.1,29.99,South,169,8.0,9.0,71,0.00,,,0.00,461,Wunderground v.1.15,2013-09-06 15:03:00,
2013-09-06 10:09:00,78.0,67.4,29.99,South,178,8.0,13.0,70,0.00,,,0.00,478,Wunderground v.1.15,2013-09-06 15:09:00,
2013-09-06 10:14:00,78.3,67.3,29.99,South,169,9.0,12.0,69,0.00,,,0.00,489,Wunderground v.1.15,2013-09-06 15:14:00,
2013-09-06 10:19:00,78.9,67.9,29.99,SSE,168,9.0,12.0,69,0.00,,,0.00,501,Wunderground v.1.15,2013-09-06 15:19:00,
2013-09-06 10:24:00,79.0,67.5,29.99,SSW,192,8.0,12.0,68,0.00,,,0.00,517,Wunderground v.1.15,2013-09-06 15:24:00,
2013-09-06 10:29:00,79.3,67.8,29.99,South,180,9.0,12.0,68,0.00,,,0.00,533,Wunderground v.1.15,2013-09-06 15:29:00,
2013-09-06 10:35:00,79.9,68.0,29.99,South,174,10.0,14.0,67,0.00,,,0.00,559,Wunderground v.1.15,2013-09-06 15:35:00,
2013-09-06 10:41:00,80.4,68.9,29.98,ESE,109,9.0,11.0,68,0.00,,,0.00,584,Wunderground v.1.15,2013-09-06 15:41:00,
2013-09-06 10:47:00,80.9,68.9,29.98,SSE,163,10.0,14.0,67,0.00,,,0.00,603,Wunderground v.1.15,2013-09-06 15:47:00,
2013-09-06 10:52:00,81.5,69.9,29.98,South,175,9.0,11.0,68,0.00,,,0.00,545,Wunderground v.1.15,2013-09-06 15:52:00,
2013-09-06 10:57:00,81.7,69.7,29.98,SSW,194,8.0,11.0,67,0.00,,,0.00,668,Wunderground v.1.15,2013-09-06 15:57:00,
2013-09-06 11:02:00,82.0,69.5,29.98,SSE,160,9.0,14.0,66,0.00,,,0.00,686,Wunderground v.1.15,2013-09-06 16:02:00,
2013-09-06 11:07:00,82.1,68.3,29.98,South,171,10.0,17.0,63,0.00,,,0.00,295,Wunderground v.1.15,2013-09-06 16:07:00,
2013-09-06 11:12:00,82.6,68.7,29.98,SSE,161,10.0,14.0,63,0.00,,,0.00,680,Wunderground v.1.15,2013-09-06 16:12:00,
2013-09-06 11:18:00,83.3,69.8,29.98,SSE,163,10.0,17.0,64,0.00,,,0.00,721,Wunderground v.1.15,2013-09-06 16:18:00,
2013-09-06 11:24:00,83.2,69.3,29.98,South,171,11.0,13.0,63,0.00,,,0.00,705,Wunderground v.1.15,2013-09-06 16:24:00,
2013-09-06 11:29:00,83.1,68.7,29.97,South,182,11.0,13.0,62,0.00,,,0.00,561,Wunderground v.1.15,2013-09-06 16:29:00,
2013-09-06 11:35:00,82.6,68.3,29.97,SSE,153,11.0,14.0,62,0.00,,,0.00,573,Wunderground v.1.15,2013-09-06 16:35:00,
2013-09-06 11:41:00,82.9,68.5,29.97,South,175,11.0,13.0,62,0.00,,,0.00,380,Wunderground v.1.15,2013-09-06 16:41:00,
2013-09-06 11:47:00,83.7,68.8,29.97,SSE,150,10.0,14.0,61,0.00,,,0.00,714,Wunderground v.1.15,2013-09-06 16:47:00,
2013-09-06 11:53:00,83.9,70.0,29.96,SSE,155,11.0,13.0,63,0.00,,,0.00,710,Wunderground v.1.15,2013-09-06 16:53:00,
2013-09-06 11:58:00,84.0,68.6,29.96,South,190,12.0,17.0,60,0.00,,,0.00,715,Wunderground v.1.15,2013-09-06 16:58:00,
2013-09-06 12:04:00,84.2,69.3,29.96,SE,142,12.0,17.0,61,0.00,,,0.00,721,Wunderground v.1.15,2013-09-06 17:04:00,
2013-09-06 12:09:00,84.9,69.9,29.96,SSE,159,11.0,17.0,61,0.00,,,0.00,722,Wunderground v.1.15,2013-09-06 17:09:00,
2013-09-06 12:14:00,85.5,69.5,29.96,SSE,165,11.0,14.0,59,0.00,,,0.00,721,Wunderground v.1.15,2013-09-06 17:14:00,
2013-09-06 12:19:00,85.6,70.1,29.95,ESE,120,11.0,15.0,60,0.00,,,0.00,726,Wunderground v.1.15,2013-09-06 17:19:00,
2013-09-06 12:24:00,85.9,69.4,29.95,SSW,192,11.0,14.0,58,0.00,,,0.00,731,Wunderground v.1.15,2013-09-06 17:24:00,
2013-09-06 12:29:00,86.1,71.1,29.95,SE,143,11.0,14.0,61,0.00,,,0.00,735,Wunderground v.1.15,2013-09-06 17:29:00,
2013-09-06 12:34:00,86.3,70.3,29.95,SE,144,10.0,15.0,59,0.00,,,0.00,737,Wunderground v.1.15,2013-09-06 17:34:00,
2013-09-06 12:39:00,86.3,69.3,29.94,SSW,198,11.0,15.0,57,0.00,,,0.00,740,Wunderground v.1.15,2013-09-06 17:39:00,
2013-09-06 12:44:00,86.8,69.7,29.94,SE,138,11.0,15.0,57,0.00,,,0.00,747,Wunderground v.1.15,2013-09-06 17:44:00,
2013-09-06 12:49:00,87.0,70.4,29.94,SSW,199,10.0,15.0,58,0.00,,,0.00,749,Wunderground v.1.15,2013-09-06 17:49:00,
2013-09-06 12:54:00,87.0,69.4,29.94,SSE,163,11.0,11.0,56,0.00,,,0.00,749,Wunderground v.1.15,2013-09-06 17:54:00,
2013-09-06 13:00:00,87.2,69.6,29.93,SSE,147,11.0,11.0,56,0.00,,,0.00,752,Wunderground v.1.15,2013-09-06 18:00:00,
2013-09-06 13:06:00,87.7,69.5,29.93,SSE,150,10.0,14.0,55,0.00,,,0.00,754,Wunderground v.1.15,2013-09-06 18:06:00,
2013-09-06 13:12:00,87.9,69.7,29.93,SSE,155,11.0,11.0,55,0.00,,,0.00,756,Wunderground v.1.15,2013-09-06 18:12:00,
2013-09-06 13:18:00,88.1,69.9,29.93,ESE,117,11.0,13.0,55,0.00,,,0.00,754,Wunderground v.1.15,2013-09-06 18:18:00,
2013-09-06 13:24:00,87.9,70.2,29.93,SE,129,12.0,15.0,56,0.00,,,0.00,759,Wunderground v.1.15,2013-09-06 18:24:00,
2013-09-06 13:30:00,88.1,70.4,29.93,South,170,11.0,11.0,56,0.00,,,0.00,759,Wunderground v.1.15,2013-09-06 18:30:00,
2013-09-06 13:35:00,88.3,69.5,29.92,South,180,11.0,11.0,54,0.00,,,0.00,752,Wunderground v.1.15,2013-09-06 18:35:00,
2013-09-06 13:40:00,88.4,70.2,29.92,SSE,147,11.0,13.0,55,0.00,,,0.00,752,Wunderground v.1.15,2013-09-06 18:40:00,
2013-09-06 13:45:00,88.8,70.5,29.92,SSW,200,11.0,17.0,55,0.00,,,0.00,754,Wunderground v.1.15,2013-09-06 18:45:00,
2013-09-06 13:51:00,89.0,70.2,29.92,SE,138,11.0,18.0,54,0.00,,,0.00,752,Wunderground v.1.15,2013-09-06 18:51:00,
2013-09-06 13:57:00,88.9,69.6,29.92,South,169,12.0,18.0,53,0.00,,,0.00,752,Wunderground v.1.15,2013-09-06 18:57:00,
2013-09-06 14:02:00,89.4,70.6,29.91,South,172,12.0,15.0,54,0.00,,,0.00,728,Wunderground v.1.15,2013-09-06 19:02:00,
2013-09-06 14:07:00,89.5,70.1,29.91,South,177,11.0,15.0,53,0.00,,,0.00,747,Wunderground v.1.15,2013-09-06 19:07:00,
2013-09-06 14:12:00,89.0,70.2,29.91,SSE,158,13.0,16.0,54,0.00,,,0.00,744,Wunderground v.1.15,2013-09-06 19:12:00,
2013-09-06 14:17:00,89.5,70.7,29.91,SSE,164,12.0,16.0,54,0.00,,,0.00,738,Wunderground v.1.15,2013-09-06 19:17:00,
2013-09-06 14:22:00,89.6,70.8,29.90,SSE,153,12.0,15.0,54,0.00,,,0.00,735,Wunderground v.1.15,2013-09-06 19:22:00,
2013-09-06 14:27:00,89.6,70.2,29.90,South,191,12.0,15.0,53,0.00,,,0.00,726,Wunderground v.1.15,2013-09-06 19:27:00,
2013-09-06 14:32:00,89.7,70.8,29.89,SSE,153,12.0,13.0,54,0.00,,,0.00,721,Wunderground v.1.15,2013-09-06 19:32:00,
2013-09-06 14:37:00,90.2,70.2,29.89,South,190,12.0,14.0,52,0.00,,,0.00,722,Wunderground v.1.15,2013-09-06 19:37:00,
2013-09-06 14:42:00,90.2,70.2,29.89,SSE,153,12.0,17.0,52,0.00,,,0.00,710,Wunderground v.1.15,2013-09-06 19:42:00,
2013-09-06 14:48:00,90.2,70.8,29.89,SSW,204,11.0,17.0,53,0.00,,,0.00,707,Wunderground v.1.15,2013-09-06 19:48:00,
2013-09-06 14:53:00,90.1,70.7,29.89,SE,144,12.0,19.0,53,0.00,,,0.00,708,Wunderground v.1.15,2013-09-06 19:53:00,
2013-09-06 14:58:00,90.4,70.4,29.89,SSE,161,12.0,19.0,52,0.00,,,0.00,701,Wunderground v.1.15,2013-09-06 19:58:00,
2013-09-06 15:04:00,90.7,70.7,29.89,SSE,161,11.0,17.0,52,0.00,,,0.00,693,Wunderground v.1.15,2013-09-06 20:04:00,
2013-09-06 15:09:00,90.6,71.1,29.89,South,177,11.0,19.0,53,0.00,,,0.00,687,Wunderground v.1.15,2013-09-06 20:09:00,
2013-09-06 15:14:00,90.5,71.0,29.88,SSE,167,12.0,16.0,53,0.00,,,0.00,675,Wunderground v.1.15,2013-09-06 20:14:00,
2013-09-06 15:19:00,90.7,70.7,29.88,SE,144,11.0,16.0,52,0.00,,,0.00,668,Wunderground v.1.15,2013-09-06 20:19:00,
2013-09-06 15:25:00,91.2,70.0,29.88,SSE,161,12.0,15.0,50,0.00,,,0.00,659,Wunderground v.1.15,2013-09-06 20:25:00,
2013-09-06 15:31:00,91.5,70.2,29.88,SSW,197,11.0,11.0,50,0.00,,,0.00,663,Wunderground v.1.15,2013-09-06 20:31:00,
2013-09-06 15:36:00,91.1,69.9,29.88,SSE,166,11.0,20.0,50,0.00,,,0.00,671,Wunderground v.1.15,2013-09-06 20:36:00,
2013-09-06 15:41:00,91.4,71.3,29.87,South,173,11.0,14.0,52,0.00,,,0.00,680,Wunderground v.1.15,2013-09-06 20:41:00,
2013-09-06 15:46:00,91.3,70.6,29.87,South,175,11.0,18.0,51,0.00,,,0.00,726,Wunderground v.1.15,2013-09-06 20:46:00,
2013-09-06 15:52:00,91.1,70.5,29.87,South,174,12.0,12.0,51,0.00,,,0.00,763,Wunderground v.1.15,2013-09-06 20:52:00,
2013-09-06 15:57:00,90.8,71.3,29.87,SSE,157,12.0,15.0,53,0.00,,,0.00,677,Wunderground v.1.15,2013-09-06 20:57:00,
2013-09-06 16:02:00,90.5,69.9,29.87,SSE,154,12.0,14.0,51,0.00,,,0.00,197,Wunderground v.1.15,2013-09-06 21:02:00,
2013-09-06 16:07:00,90.1,70.1,29.87,SSW,194,13.0,17.0,52,0.00,,,0.00,153,Wunderground v.1.15,2013-09-06 21:07:00,
2013-09-06 16:12:00,89.2,69.8,29.87,SSW,200,12.0,16.0,53,0.00,,,0.00,123,Wunderground v.1.15,2013-09-06 21:12:00,
2013-09-06 16:18:00,88.8,70.0,29.87,SE,134,12.0,19.0,54,0.00,,,0.00,155,Wunderground v.1.15,2013-09-06 21:18:00,
2013-09-06 16:24:00,89.6,70.8,29.86,SSE,155,11.0,12.0,54,0.00,,,0.00,563,Wunderground v.1.15,2013-09-06 21:24:00,
2013-09-06 16:30:00,90.3,70.8,29.86,SSE,163,11.0,14.0,53,0.00,,,0.00,575,Wunderground v.1.15,2013-09-06 21:30:00,
2013-09-06 16:36:00,90.0,71.7,29.86,SSE,159,11.0,14.0,55,0.00,,,0.00,373,Wunderground v.1.15,2013-09-06 21:36:00,
2013-09-06 16:42:00,90.4,70.9,29.86,SSE,148,10.0,14.0,53,0.00,,,0.00,387,Wunderground v.1.15,2013-09-06 21:42:00,
2013-09-06 16:47:00,90.5,71.6,29.86,SSE,157,10.0,15.0,54,0.00,,,0.00,522,Wunderground v.1.15,2013-09-06 21:47:00,
2013-09-06 16:52:00,90.8,70.7,29.85,South,173,9.0,14.0,52,0.00,,,0.00,504,Wunderground v.1.15,2013-09-06 21:52:00,
2013-09-06 16:57:00,90.3,70.3,29.85,SE,146,11.0,16.0,52,0.00,,,0.00,482,Wunderground v.1.15,2013-09-06 21:57:00,
2013-09-06 17:03:00,90.2,70.2,29.85,SSW,192,13.0,13.0,52,0.00,,,0.00,455,Wunderground v.1.15,2013-09-06 22:03:00,
2013-09-06 17:09:00,90.4,70.4,29.85,SSE,166,13.0,17.0,52,0.00,,,0.00,438,Wunderground v.1.15,2013-09-06 22:09:00,
2013-09-06 17:14:00,90.2,70.8,29.85,SSW,198,13.0,16.0,53,0.00,,,0.00,313,Wunderground v.1.15,2013-09-06 22:14:00,
2013-09-06 17:20:00,89.6,70.8,29.85,SSE,159,11.0,14.0,54,0.00,,,0.00,132,Wunderground v.1.15,2013-09-06 22:20:00,
2013-09-06 17:26:00,89.3,70.5,29.85,South,178,10.0,14.0,54,0.00,,,0.00,373,Wunderground v.1.15,2013-09-06 22:26:00,
2013-09-06 17:32:00,89.2,70.4,29.85,SSE,153,11.0,11.0,54,0.00,,,0.00,107,Wunderground v.1.15,2013-09-06 22:32:00,
2013-09-06 17:37:00,88.6,70.4,29.85,SSE,165,12.0,15.0,55,0.00,,,0.00,107,Wunderground v.1.15,2013-09-06 22:37:00,
2013-09-06 17:42:00,88.2,71.0,29.85,South,169,10.0,11.0,57,0.00,,,0.00,155,Wunderground v.1.15,2013-09-06 22:42:00,
2013-09-06 17:47:00,88.1,71.5,29.85,South,186,8.0,11.0,58,0.00,,,0.00,127,Wunderground v.1.15,2013-09-06 22:47:00,
2013-09-06 17:52:00,87.9,70.2,29.85,SSW,194,9.0,21.0,56,0.00,,,0.00,98,Wunderground v.1.15,2013-09-06 22:52:00,
2013-09-06 17:57:00,87.8,70.1,29.85,SE,143,11.0,21.0,56,0.00,,,0.00,113,Wunderground v.1.15,2013-09-06 22:57:00,
2013-09-06 18:03:00,87.7,70.6,29.85,South,174,10.0,10.0,57,0.00,,,0.00,118,Wunderground v.1.15,2013-09-06 23:03:00,
2013-09-06 18:08:00,87.8,70.7,29.85,SSE,167,9.0,14.0,57,0.00,,,0.00,134,Wunderground v.1.15,2013-09-06 23:08:00,
2013-09-06 18:13:00,87.5,71.4,29.85,SSE,155,8.0,9.0,59,0.00,,,0.00,91,Wunderground v.1.15,2013-09-06 23:13:00,
2013-09-06 18:18:00,87.2,71.1,29.85,SSW,200,8.0,9.0,59,0.00,,,0.00,79,Wunderground v.1.15,2013-09-06 23:18:00,
2013-09-06 18:24:00,86.8,71.2,29.84,South,169,8.0,12.0,60,0.00,,,0.00,76,Wunderground v.1.15,2013-09-06 23:24:00,
2013-09-06 18:30:00,86.8,70.8,29.84,SE,143,9.0,9.0,59,0.00,,,0.00,185,Wunderground v.1.15,2013-09-06 23:30:00,
2013-09-06 18:36:00,87.0,70.9,29.83,SE,138,9.0,11.0,59,0.00,,,0.00,148,Wunderground v.1.15,2013-09-06 23:36:00,
2013-09-06 18:41:00,87.0,70.9,29.83,SSE,151,10.0,13.0,59,0.00,,,0.00,98,Wunderground v.1.15,2013-09-06 23:41:00,
2013-09-06 18:47:00,86.8,70.8,29.83,South,172,10.0,16.0,59,0.00,,,0.00,91,Wunderground v.1.15,2013-09-06 23:47:00,
2013-09-06 18:52:00,86.6,71.1,29.83,SSE,148,9.0,9.0,60,0.00,,,0.00,77,Wunderground v.1.15,2013-09-06 23:52:00,
2013-09-06 18:57:00,86.5,71.0,29.83,South,172,9.0,9.0,60,0.00,,,0.00,47,Wunderground v.1.15,2013-09-06 23:57:00,
2013-09-06 19:03:00,86.1,70.6,29.83,South,173,9.0,13.0,60,0.00,,,0.00,40,Wunderground v.1.15,2013-09-07 00:03:00,
2013-09-06 19:09:00,85.7,70.7,29.83,South,174,9.0,13.0,61,0.00,,,0.00,37,Wunderground v.1.15,2013-09-07 00:09:00,
2013-09-06 19:14:00,85.4,70.4,29.83,South,190,9.0,12.0,61,0.00,,,0.00,28,Wunderground v.1.15,2013-09-07 00:14:00,
2013-09-06 19:20:00,85.0,70.5,29.83,SE,125,8.0,8.0,62,0.00,,,0.00,25,Wunderground v.1.15,2013-09-07 00:20:00,
2013-09-06 19:26:00,84.6,70.6,29.83,SSE,150,7.0,9.0,63,0.00,,,0.00,19,Wunderground v.1.15,2013-09-07 00:26:00,
2013-09-06 19:32:00,84.0,71.9,29.83,SE,144,8.0,14.0,67,0.00,,,0.00,16,Wunderground v.1.15,2013-09-07 00:32:00,
2013-09-06 19:37:00,83.6,71.9,29.83,SSE,159,9.0,14.0,68,0.00,,,0.00,12,Wunderground v.1.15,2013-09-07 00:37:00,
2013-09-06 19:43:00,83.2,72.0,29.83,SSW,195,9.0,11.0,69,0.00,,,0.00,7,Wunderground v.1.15,2013-09-07 00:43:00,
2013-09-06 19:48:00,82.9,71.7,29.83,SSE,167,9.0,11.0,69,0.00,,,0.00,0,Wunderground v.1.15,2013-09-07 00:48:00,
2013-09-06 19:53:00,82.5,71.7,29.83,SSE,156,9.0,11.0,70,0.00,,,0.00,0,Wunderground v.1.15,2013-09-07 00:53:00,
2013-09-06 19:58:00,82.2,71.4,29.83,SE,144,10.0,12.0,70,0.00,,,0.00,0,Wunderground v.1.15,2013-09-07 00:58:00,
2013-09-06 20:04:00,81.8,71.1,29.83,South,169,10.0,14.0,70,0.00,,,0.00,0,Wunderground v.1.15,2013-09-07 01:04:00,
2013-09-06 20:10:00,81.5,71.2,29.83,SSE,165,9.0,9.0,71,0.00,,,0.00,0,Wunderground v.1.15,2013-09-07 01:10:00,
2013-09-06 20:16:00,81.3,71.0,29.83,SSE,147,8.0,12.0,71,0.00,,,0.00,0,Wunderground v.1.15,2013-09-07 01:16:00,
2013-09-06 20:22:00,81.0,70.7,29.83,SSE,165,7.0,9.0,71,0.00,,,0.00,0,Wunderground v.1.15,2013-09-07 01:22:00,
2013-09-06 20:27:00,80.8,70.5,29.83,SSE,156,7.0,14.0,71,0.00,,,0.00,0,Wunderground v.1.15,2013-09-07 01:27:00,
2013-09-06 20:32:00,80.7,70.8,29.83,SSE,166,8.0,10.0,72,0.00,,,0.00,0,Wunderground v.1.15,2013-09-07 01:32:00,
2013-09-06 20:37:00,80.5,70.6,29.83,SSE,153,8.0,11.0,72,0.00,,,0.00,0,Wunderground v.1.15,2013-09-07 01:37:00,
2013-09-06 20:42:00,80.3,70.4,29.83,SSE,155,8.0,11.0,72,0.00,,,0.00,0,Wunderground v.1.15,2013-09-07 01:42:00,
2013-09-06 20:48:00,80.2,70.4,29.83,SSE,155,8.0,11.0,72,0.00,,,0.00,0,Wunderground v.1.15,2013-09-07 01:48:00,
2013-09-06 20:54:00,80.0,70.2,29.84,SSE,161,8.0,11.0,72,0.00,,,0.00,0,Wunderground v.1.15,2013-09-07 01:54:00,
2013-09-06 21:00:00,79.9,70.1,29.84,SSE,163,9.0,9.0,72,0.00,,,0.00,0,Wunderground v.1.15,2013-09-07 02:00:00,
2013-09-06 21:05:00,79.7,69.9,29.83,SSE,167,8.0,15.0,72,0.00,,,0.00,0,Wunderground v.1.15,2013-09-07 02:05:00,
2013-09-06 21:10:00,79.6,69.8,29.83,SSE,155,8.0,8.0,72,0.00,,,0.00,0,Wunderground v.1.15,2013-09-07 02:10:00,
2013-09-06 21:16:00,79.5,69.7,29.83,SSE,147,8.0,12.0,72,0.00,,,0.00,0,Wunderground v.1.15,2013-09-07 02:16:00,
2013-09-06 21:22:00,79.4,70.0,29.84,SE,135,9.0,9.0,73,0.00,,,0.00,0,Wunderground v.1.15,2013-09-07 02:22:00,
2013-09-06 21:27:00,79.3,69.9,29.83,SE,142,9.0,11.0,73,0.00,,,0.00,0,Wunderground v.1.15,2013-09-07 02:27:00,
2013-09-06 21:32:00,79.2,69.8,29.83,South,180,9.0,9.0,73,0.00,,,0.00,0,Wunderground v.1.15,2013-09-07 02:32:00,
2013-09-06 21:37:00,79.1,69.7,29.83,SE,141,9.0,12.0,73,0.00,,,0.00,0,Wunderground v.1.15,2013-09-07 02:37:00,
2013-09-06 21:42:00,79.1,69.7,29.83,SSE,152,9.0,13.0,73,0.00,,,0.00,0,Wunderground v.1.15,2013-09-07 02:42:00,
2013-09-06 21:47:00,78.9,69.5,29.84,SSE,153,9.0,13.0,73,0.00,,,0.00,0,Wunderground v.1.15,2013-09-07 02:47:00,
2013-09-06 21:52:00,78.7,69.7,29.83,SSE,159,8.0,11.0,74,0.00,,,0.00,0,Wunderground v.1.15,2013-09-07 02:52:00,
2013-09-06 21:57:00,78.5,69.5,29.83,South,177,9.0,11.0,74,0.00,,,0.00,0,Wunderground v.1.15,2013-09-07 02:57:00,
2013-09-06 22:02:00,78.4,69.4,29.83,SE,146,8.0,9.0,74,0.00,,,0.00,0,Wunderground v.1.15,2013-09-07 03:02:00,
2013-09-06 22:08:00,78.2,69.6,29.83,SSE,158,8.0,10.0,75,0.00,,,0.00,0,Wunderground v.1.15,2013-09-07 03:08:00,
2013-09-06 22:13:00,78.0,69.4,29.83,SSE,160,7.0,9.0,75,0.00,,,0.00,0,Wunderground v.1.15,2013-09-07 03:13:00,
2013-09-06 22:19:00,77.9,69.7,29.83,SE,142,8.0,10.0,76,0.00,,,0.00,0,Wunderground v.1.15,2013-09-07 03:19:00,
2013-09-06 22:25:00,77.6,69.4,29.83,SSE,165,7.0,10.0,76,0.00,,,0.00,0,Wunderground v.1.15,2013-09-07 03:25:00,
2013-09-06 22:31:00,77.5,69.3,29.83,SSE,148,8.0,11.0,76,0.00,,,0.00,0,Wunderground v.1.15,2013-09-07 03:31:00,
2013-09-06 22:37:00,77.4,69.2,29.83,SE,139,8.0,11.0,76,0.00,,,0.00,0,Wunderground v.1.15,2013-09-07 03:37:00,
2013-09-06 22:42:00,77.4,69.2,29.83,South,177,8.0,12.0,76,0.00,,,0.00,0,Wunderground v.1.15,2013-09-07 03:42:00,
2013-09-06 22:47:00,77.5,69.3,29.83,South,185,8.0,12.0,76,0.00,,,0.00,0,Wunderground v.1.15,2013-09-07 03:47:00,
2013-09-06 22:52:00,77.5,69.3,29.83,South,184,8.0,11.0,76,0.00,,,0.00,0,Wunderground v.1.15,2013-09-07 03:52:00,
2013-09-06 22:57:00,77.6,69.0,29.83,SSE,167,8.0,12.0,75,0.00,,,0.00,0,Wunderground v.1.15,2013-09-07 03:57:00,
2013-09-06 23:01:00,77.7,69.1,29.83,South,181,9.0,10.0,75,0.00,,,0.00,0,Wunderground v.1.15,2013-09-07 04:01:00,
2013-09-06 23:04:00,77.8,69.2,29.83,South,171,9.0,13.0,75,0.00,,,0.00,0,Wunderground v.1.15,2013-09-07 04:04:00,
2013-09-06 23:06:00,77.8,68.8,29.83,South,171,9.0,13.0,74,0.00,,,0.00,0,Wunderground v.1.15,2013-09-07 04:06:00,
2013-09-06 23:09:00,77.8,68.8,29.83,SSW,192,9.0,13.0,74,0.00,,,0.00,0,Wunderground v.1.15,2013-09-07 04:09:00,
2013-09-06 23:11:00,77.9,68.9,29.83,South,181,9.0,11.0,74,0.00,,,0.00,0,Wunderground v.1.15,2013-09-07 04:11:00,
2013-09-06 23:13:00,77.9,68.9,29.83,SSE,155,9.0,12.0,74,0.00,,,0.00,0,Wunderground v.1.15,2013-09-07 04:13:00,
2013-09-06 23:18:00,78.0,69.0,29.83,South,178,9.0,14.0,74,0.00,,,0.00,0,Wunderground v.1.15,2013-09-07 04:18:00,
2013-09-06 23:23:00,78.0,68.6,29.83,SSE,167,10.0,14.0,73,0.00,,,0.00,0,Wunderground v.1.15,2013-09-07 04:23:00,
2013-09-06 23:29:00,78.0,68.6,29.83,SSE,154,10.0,14.0,73,0.00,,,0.00,0,Wunderground v.1.15,2013-09-07 04:29:00,
2013-09-06 23:35:00,78.0,68.6,29.83,SSE,154,10.0,10.0,73,0.00,,,0.00,0,Wunderground v.1.15,2013-09-07 04:35:00,
2013-09-06 23:40:00,78.0,68.6,29.83,SSW,199,9.0,10.0,73,0.00,,,0.00,0,Wunderground v.1.15,2013-09-07 04:40:00,
2013-09-06 23:46:00,78.1,68.3,29.83,SSE,165,9.0,12.0,72,0.00,,,0.00,0,Wunderground v.1.15,2013-09-07 04:46:00,
2013-09-06 23:51:00,78.1,68.3,29.83,South,184,9.0,9.0,72,0.00,,,0.00,0,Wunderground v.1.15,2013-09-07 04:51:00,
2013-09-06 23:57:00,78.0,68.6,29.83,South,175,9.0,12.0,73,0.00,,,0.00,0,Wunderground v.1.15,2013-09-07 04:57:00,